FW6576 Weather Reports


Display with metric or nautical units.
time (UTC)temp
F
wind
direction
speed
MPH
gust
MPH
rain 1hr
in
rain 24hr
in
rain mn
in
humidity
%
barometer
mb
20260505124350 65 248 0.0 0.0 0.00 0.00 0.00 82 1014.4
20260505123839 65 248 0.0 2.0 0.00 0.00 0.00 82 1014.4
20260505123329 65 248 0.0 2.0 0.00 0.00 0.00 82 1014.2
20260505122309 65 315 0.0 2.0 0.00 0.00 0.00 82 1014.5
20260505121759 65 315 0.0 2.0 0.00 0.00 0.00 82 1014.3
20260505121249 65 315 0.0 2.0 0.00 0.00 0.00 82 1014.3
20260505120738 64 293 0.0 2.0 0.00 0.00 0.00 82 1014.5
20260505120232 64 315 0.0 2.0 0.00 0.00 0.00 82 1014.4
20260505115720 64 315 0.0 2.0 0.00 0.00 0.00 81 1014.0
20260505114700 64 23 0.0 2.0 0.00 0.00 0.00 81 1014.1
20260505114150 64 0 0.0 0.0 0.00 0.00 0.00 81 1013.8
20260505113638 64 315 0.0 0.0 0.00 0.00 0.00 81 1014.0
20260505112618 63 315 0.0 0.0 0.00 0.00 0.00 81 1013.6
20260505112107 63 315 0.0 0.0 0.00 0.00 0.00 81 1013.6
20260505111556 63 315 0.0 0.0 0.00 0.00 0.00 81 1013.5
20260505111047 63 315 0.0 0.0 0.00 0.00 0.00 82 1013.7
20260505110537 62 315 0.0 0.0 0.00 0.00 0.00 82 1013.4
20260505101355 62 315 0.0 0.0 0.00 0.00 0.00 82 1012.9
20260505100845 62 315 0.0 0.0 0.00 0.00 0.00 82 1013.0
20260505100335 62 315 0.0 0.0 0.00 0.00 0.00 82 1012.8
20260505095315 62 315 0.0 0.0 0.00 0.00 0.00 81 1012.6
20260505094807 62 315 0.0 0.0 0.00 0.00 0.00 81 1012.6
20260505093744 62 315 0.0 0.0 0.00 0.00 0.00 81 1012.9
20260505093234 62 315 0.0 0.0 0.00 0.00 0.00 81 1012.7
20260505092724 62 315 0.0 0.0 0.00 0.00 0.00 81 1012.6
20260505092214 62 315 0.0 0.0 0.00 0.00 0.00 81 1012.8
20260505091704 61 315 0.0 0.0 0.00 0.00 0.00 81 1012.9
20260505091155 61 315 0.0 0.0 0.00 0.00 0.00 80 1012.6
20260505090645 61 315 0.0 0.0 0.00 0.00 0.00 80 1012.5
20260505090133 61 315 0.0 0.0 0.00 0.00 0.00 80 1012.7
20260505085113 61 315 0.0 0.0 0.00 0.00 0.00 80 1012.6
20260505084602 61 315 0.0 0.0 0.00 0.00 0.00 80 1012.5
20260505084052 61 315 0.0 0.0 0.00 0.00 0.00 80 1012.6
20260505083544 61 315 0.0 0.0 0.00 0.00 0.00 79 1012.6
20260505083034 61 315 0.0 0.0 0.00 0.00 0.00 80 1012.6
20260505082011 61 315 0.0 0.0 0.00 0.00 0.00 80 1012.4
20260505081502 61 315 0.0 0.0 0.00 0.00 0.00 80 1012.4
20260505080952 60 315 0.0 0.0 0.00 0.00 0.00 80 1012.5
20260505080442 60 315 0.0 0.0 0.00 0.00 0.00 80 1012.5
20260505075931 60 315 0.0 0.0 0.00 0.00 0.00 80 1012.3
20260505075421 60 315 0.0 0.0 0.00 0.00 0.00 81 1012.2
20260505074912 60 315 0.0 0.0 0.00 0.00 0.00 81 1012.2
20260505074400 60 315 0.0 0.0 0.00 0.00 0.00 80 1012.4
20260505073341 59 315 0.0 0.0 0.00 0.00 0.00 81 1012.2
20260505072832 59 315 0.0 0.0 0.00 0.00 0.00 81 1012.2
20260505072321 59 315 0.0 0.0 0.00 0.00 0.00 80 1012.5
20260505071810 59 315 0.0 0.0 0.00 0.00 0.00 80 1012.3
20260505071302 59 315 0.0 0.0 0.00 0.00 0.00 80 1012.0
20260505070750 59 315 0.0 0.0 0.00 0.00 0.00 80 1012.2
20260505070240 59 315 0.0 0.0 0.00 0.00 0.00 79 1012.1
20260505065729 59 315 0.0 0.0 0.00 0.00 0.00 79 1012.0
20260505065219 59 315 0.0 0.0 0.00 0.00 0.00 79 1012.2
20260505064159 59 315 0.0 0.0 0.00 0.00 0.00 79 1012.2
20260505063138 58 315 0.0 0.0 0.00 0.00 0.00 79 1012.3
20260505062119 59 315 0.0 0.0 0.00 0.00 0.00 78 1012.5
20260505061608 59 315 0.0 0.0 0.00 0.00 0.00 78 1012.1
20260505060549 59 315 0.0 0.0 0.00 0.00 0.00 78 1012.1
20260505055642 59 315 0.0 0.0 0.00 0.00 0.00 77 1012.2
20260505055133 60 315 0.0 0.0 0.00 0.00 0.00 77 1012.4
20260505054621 60 315 0.0 0.0 0.00 0.00 0.00 76 1012.4
20260505054113 60 315 0.0 0.0 0.00 0.00 0.00 76 1012.4
20260505053603 60 315 0.0 0.0 0.00 0.00 0.00 76 1012.3
20260505053051 60 315 0.0 0.0 0.00 0.00 0.00 76 1012.4
20260505052541 60 315 0.0 0.0 0.00 0.00 0.00 75 1012.5
20260505052032 60 315 0.0 0.0 0.00 0.00 0.00 75 1012.6
20260505051531 61 315 0.0 0.0 0.00 0.00 0.00 75 1012.4
20260505051011 61 315 0.0 0.0 0.00 0.00 0.00 75 1012.4
20260505041320 59 338 0.0 0.0 0.00 0.00 0.00 81 1012.5
20260505040808 59 338 0.0 0.0 0.00 0.00 0.00 81 1012.7
20260505040259 60 338 0.0 0.0 0.00 0.00 0.00 80 1012.6
20260505034219 59 338 0.0 0.0 0.00 0.00 0.00 76 1012.5
20260505033707 59 338 0.0 0.0 0.00 0.00 0.00 76 1012.3
20260505033159 60 338 0.0 0.0 0.00 0.00 0.00 76 1012.3
20260505032649 59 338 0.0 0.0 0.00 0.00 0.00 76 1012.2
20260505032137 59 338 0.0 0.0 0.00 0.00 0.00 76 1012.1
20260505031628 59 338 0.0 0.0 0.00 0.00 0.00 76 1012.1
20260505031117 60 338 0.0 0.0 0.00 0.00 0.00 75 1012.2
20260505030608 60 338 0.0 0.0 0.00 0.00 0.00 75 1012.4
20260505025546 60 338 0.0 0.0 0.00 0.00 0.00 75 1012.4
20260505025037 60 338 0.0 0.0 0.00 0.00 0.00 74 1012.4
20260505024526 60 338 0.0 0.0 0.00 0.00 0.00 74 1012.7
20260505024016 60 338 0.0 0.0 0.00 0.00 0.00 74 1012.5
20260505023507 60 338 0.0 0.0 0.00 0.00 0.00 74 1012.4
20260505022957 60 338 0.0 0.0 0.00 0.00 0.00 73 1012.5
20260505022447 60 338 0.0 0.0 0.00 0.00 0.00 73 1012.4
20260505021935 60 338 0.0 0.0 0.00 0.00 0.00 73 1012.5
20260505020404 61 338 0.0 0.0 0.00 0.00 0.00 73 1012.4
20260505015854 61 338 0.0 0.0 0.00 0.00 0.00 73 1012.4
20260505015344 61 338 0.0 0.0 0.00 0.00 0.00 73 1012.4
20260505014836 61 338 0.0 0.0 0.00 0.00 0.00 74 1012.3
20260505013817 60 338 0.0 0.0 0.00 0.00 0.00 75 1012.0
20260505013304 60 338 0.0 0.0 0.00 0.00 0.00 75 1012.0
20260505012756 60 338 0.0 0.0 0.00 0.00 0.00 75 1012.2
20260505012243 61 338 0.0 0.0 0.00 0.00 0.00 76 1012.0
20260505011734 61 338 0.0 0.0 0.00 0.00 0.00 75 1012.1
20260505010713 61 338 0.0 0.0 0.00 0.00 0.00 75 1012.0
20260505010203 62 338 0.0 0.0 0.00 0.00 0.00 74 1012.0
20260505005653 62 338 0.0 0.0 0.00 0.00 0.00 74 1011.9
20260505005144 62 338 0.0 0.0 0.00 0.00 0.00 74 1011.8
20260505004633 61 315 0.0 0.0 0.00 0.00 0.00 75 1011.8
20260505004123 61 293 0.0 0.0 0.00 0.00 0.00 76 1011.8
20260505003621 61 270 0.0 0.0 0.00 0.00 0.00 78 1011.5
20260505003107 60 270 0.0 0.0 0.00 0.00 0.00 80 1011.4
20260505002552 60 270 0.0 0.0 0.00 0.00 0.00 81 1011.4
20260505002041 60 270 0.0 0.0 0.00 0.00 0.00 81 1011.6
20260505001533 60 270 0.0 0.0 0.00 0.00 0.00 81 1011.6
20260505001021 61 270 0.0 0.0 0.00 0.00 0.00 80 1011.6
20260505000511 61 270 0.0 0.0 0.00 0.00 0.00 80 1011.4
20260505000000 61 270 0.0 0.0 0.00 0.00 0.00 79 1011.5
20260504235452 61 270 0.0 0.0 0.00 0.00 0.00 79 1011.7
20260504234430 62 270 0.0 0.0 0.00 0.00 0.00 79 1011.7
20260504233922 62 270 0.0 0.0 0.00 0.00 0.00 78 1011.4
20260504233410 62 270 0.0 0.0 0.00 0.00 0.00 78 1011.5
20260504232859 62 270 0.0 0.0 0.00 0.00 0.00 78 1011.5
20260504232351 62 270 0.0 0.0 0.00 0.00 0.00 77 1011.3
20260504231841 63 270 0.0 0.0 0.00 0.00 0.00 76 1011.4
20260504231330 63 270 0.0 0.0 0.00 0.00 0.00 76 1011.2
20260504230820 63 270 0.0 0.0 0.00 0.00 0.00 75 1011.5
20260504230311 63 270 0.0 0.0 0.00 0.00 0.00 75 1011.5
20260504225759 63 270 0.0 0.0 0.00 0.00 0.00 76 1011.2
20260504224229 63 270 0.0 2.0 0.00 0.00 0.00 76 1011.1
20260504223208 63 270 0.0 0.0 0.00 0.00 0.00 76 1011.0
20260504222658 63 270 0.0 0.0 0.00 0.00 0.00 76 1010.9
20260504222148 63 270 0.0 0.0 0.00 0.00 0.00 75 1010.9
20260504221638 64 270 0.0 0.0 0.00 0.00 0.00 74 1010.9
20260504221130 64 270 0.0 0.0 0.00 0.00 0.00 74 1011.0
20260504220619 64 270 0.0 0.0 0.00 0.00 0.00 73 1010.8
20260504220110 64 270 0.0 0.0 0.00 0.00 0.00 72 1010.9
20260504215558 64 270 0.0 0.0 0.00 0.00 0.00 71 1010.8
20260504214537 64 293 0.0 2.0 0.00 0.00 0.00 69 1010.7
20260504214028 65 270 0.0 2.0 0.00 0.00 0.00 67 1010.7
20260504213517 65 270 0.0 0.0 0.00 0.00 0.00 66 1010.8
20260504213006 65 270 0.0 2.0 0.00 0.00 0.00 65 1010.5
20260504212457 65 293 0.0 2.0 0.00 0.00 0.00 64 1010.4
20260504211947 66 293 0.0 2.0 0.00 0.00 0.00 63 1010.5
20260504211437 66 293 0.0 2.0 0.00 0.00 0.00 61 1010.6
20260504210927 67 293 0.0 2.0 0.00 0.00 0.00 55 1010.5
20260504210416 67 293 0.0 2.0 0.00 0.00 0.00 55 1010.5
20260504205357 67 338 0.0 0.0 0.00 0.00 0.00 54 1010.7
20260504204848 67 338 0.0 2.0 0.00 0.00 0.00 54 1010.5
20260504204335 67 293 0.0 2.0 0.00 0.00 0.00 53 1010.5
20260504203316 68 338 0.0 0.0 0.00 0.00 0.00 54 1010.5
20260504202804 68 315 0.0 2.0 0.00 0.00 0.00 54 1010.6
20260504202255 68 315 0.0 2.0 0.00 0.00 0.00 54 1010.4
20260504201747 68 293 1.0 2.0 0.00 0.00 0.00 54 1010.6
20260504201238 68 293 0.0 2.0 0.00 0.00 0.00 53 1010.4
20260504200725 68 293 0.0 2.0 0.00 0.00 0.00 53 1010.8
20260504200218 68 293 0.0 2.0 0.00 0.00 0.00 52 1010.2
20260504195705 68 315 0.0 2.0 0.00 0.00 0.00 52 1010.6
20260504195154 69 293 0.0 2.0 0.00 0.00 0.00 51 1010.8
20260504194645 69 248 0.0 2.0 0.00 0.00 0.00 50 1010.9